STARLINK-11469, 62227

Orbit data source: Space-Track

STARLINK-11469, 62227 is a payload satellite owned by SpaceX/Seattle (US) in LEO that was launched on Thu, 05 Dec 2024 UTC via an FALCON 9 launch vehicle from the Air Force Western Test Range (AFWTR). Payload-class satellites include a variety of spacecraft equipped with specific instruments for various scientific and technological missions. These include communications satellites like Starlink; space stations such as the ISS; scientific satellites like the Hubble; Earth observation satellites from companies like Planet Labs, Umbra, and HawkEye 360; GPS; miniature CubeSats for education and research; and military/defense satellites.

Loading next visibility...
Identifier
62227, 2024-231K
Orbit
LEO
Country
Flag of USUS
Related business
Manufacturer
SpaceX/Seattle
Mission
Operational Commercial Communications
Bus & Motor
STARLINK V2MD, Unknown motor
Mass
960 kg wet, ~910 kg dry
Launch date (UTC)
2024-12-05 (1 year ago)
Launch vehicle
FALCON 9
Launch site
Air Force Western Test Range (AFWTR)
Object type
Payload
Rocket body
Debris
Shape & HBR
Box + 2 Pan, 18.1 m
Radar Cross Section
36.964 m², Large (>1 m²)

Expand to show TLE details & history
Last TLE update: 13 hours ago

TLE from 13 hours ago
0 STARLINK-11469
1 62227U 24231K   26037.24677265  .00209705  00000-0  16898-2 0  9995
2 62227  53.1572 256.2177 0000993 126.5650 233.5460 15.69746457 68472
Epoch: 2026-02-06T05:55Z
TLE epoch observation values (Epoch: 2026-02-06T05:55:21.156Z)
Latitude
Longitude
30.99216°
Altitude
360.935 km
Speed
7.694 km/s
True Right ascension
17h 04m 52s
True Declination
0° 00' 00"
Sunlit
Object was in daylight at epoch
Visualization orbit readout
Latitude
Unknown
Longitude
Unknown
Altitude
Unknown
Speed
Unknown
Apparent Right ascension
Unknown
Apparent Declination
Unknown
Sunlit
N/A
Visualization observer readout
Local Sidereal Time
21:19:18
Azimuth
Unknown
Elevation
Unknown
Doppler factor
Unknown
Orbital elements
Apogee altitude
360.553 km
Perigee altitude
359.214 km
Semi-major axis
6,738.021 km
Eccentricity
0.0001
Inclination
53.1572°
RAAN
256.2177°
Arg. of periapsis
126.565°
True anomaly
233.53685°
Mean anomaly
233.546°
Eccentric anomaly
233.54142°
Mean motion
3.92414 °/min
Orbital period
91.74 mins
BSTAR
0.0016898
Loading maneuver chart data...
Computing Atmospheric mass density...
Loading historical data...
Loading historical data...
Loading historical data...
Loading historical data...
Loading historical data...
Loading historical data...
Loading historical data...

Documentation

Showing up to 5 results
|